Flag for Trinidad and Tobago Weather past 2 weeks in San Fernando, Trinidad and Tobago

Now
81 °F

Passing clouds.


Feels Like: 85 °F
Forecast: 78 / 88 °F
Wind: 5 mph from East

Location: Piarco International Airport - Trinidad

Current Time: Jul 27, 2015 at 10:18:54 PM

Latest Report: Jul 27, 2015 at 9:00 PM


Visibility: N/A

Pressure: 29.95 "Hg

Humidity: 79%

Dew point: 73 °F

Location of San FernandoLocation

Historic Weather in San Fernando — Graph

°F

San Fernando temperature yesterday

Maximum temperature yesterday: 90 °F (at 11:00 AM)
Minimum temperature yesterday: 75 °F (at 5:00 AM)
Average temperature yesterday: 82 °F

Past Weeks' High & Low Weather Summary

 TemperatureHumidityPressure
High91 °F (Jul 20, 11:00 AM)100% (Jul 16, 7:00 PM)30.04 "Hg (Jul 16, 7:00 PM)
Low75 °F (Jul 13, 1:00 AM)52% (Jul 18, 2:00 PM)29.86 "Hg (Jul 15, 5:00 PM)
Average82 °F79%29.95 "Hg
* Reported Jul 12 9:00 PM — Jul 27 9:00 PM, San Fernando, Weather by CustomWeather, © 2015

Note: Actual official high and low records may vary slightly from our data, if they occured in-between our weather recording intervals... More about our weather records

Advertising

San Fernando weather history for previous 24 hours

 ConditionsComfort  
Time TempWeatherWind HumidityBarometerVisibility
9:00 PM
Mon, Jul 27
81 °FPassing clouds.5 mph79%29.95 "HgN/A
8:00 PM81 °FPassing clouds.7 mph79%29.92 "HgN/A
7:00 PM82 °FPassing clouds.8 mph74%29.92 "HgN/A
6:00 PM84 °FPassing clouds.14 mph70%29.89 "HgN/A
5:00 PM86 °FPassing clouds.14 mph70%29.86 "HgN/A
4:00 PM88 °FPassing clouds.12 mph62%29.86 "HgN/A
3:00 PM90 °FScattered clouds.14 mph59%29.89 "HgN/A
2:00 PM90 °FPartly sunny.17 mph55%29.92 "HgN/A
1:00 PM88 °FScattered clouds.15 mph62%29.92 "HgN/A
12:00 PM88 °FSprinkles. Partly sunny.7 mph66%29.95 "Hg4 mi
11:00 AM88 °FScattered clouds.9 mph62%29.95 "HgN/A
10:00 AM88 °FScattered clouds.14 mph62%29.98 "HgN/A
9:00 AM86 °FScattered clouds.9 mph70%29.98 "HgN/A
8:00 AM82 °FPassing clouds.No wind79%29.95 "HgN/A
7:00 AM77 °FPassing clouds.No wind89%29.95 "HgN/A
6:00 AM75 °FPassing clouds.No wind94%29.95 "HgN/A
4:00 AM75 °FPassing clouds.No wind89%29.92 "HgN/A
3:00 AM77 °FPassing clouds.5 mph79%29.92 "HgN/A
2:00 AM77 °FPassing clouds.6 mph83%29.92 "HgN/A
1:00 AM77 °FPassing clouds.6 mph94%29.95 "HgN/A
12:00 AMN/APassing clouds.5 mphN/AN/AN/A
11:00 PM
Sun, Jul 26
77 °FPassing clouds.5 mph83%29.98 "HgN/A
10:00 PM79 °FClear.6 mph79%29.98 "Hg10 mi
Weather by CustomWeather, © 2015

See weather overviewHow to use our weather pages